This demonstration page uses our WeatherBlox Daily Observations layout. Learn more.

Left ArrowRight Arrow

Hourly Observations for September 5, 2021

Temp ( °F °C ) Dew Point ( °F °C ) Humidity (%) Winds ( mph kmh ) Pressure ( in mb ) Visibility ( mi km ) Precip ( " mm )
12:15 am 00:15 Clear 68 20 64 18 88 88 SW 3 6 29.94 1014 10 16 N/A
12:35 am 00:35 Clear 68 20 64 18 88 88 N N/A 29.93 1014 10 16 N/A
12:55 am 00:55 Clear 68 20 64 18 88 88 N N/A 29.93 1014 10 16 N/A
1:15 am 01:15 Clear 68 20 64 18 88 88 N N/A 29.93 1014 10 16 N/A
1:35 am 01:35 Clear 66 19 64 18 94 94 N N/A 29.92 1013 10 16 N/A
1:55 am 01:55 Clear 68 20 64 18 88 88 S 6 9 29.92 1013 10 16 N/A
2:15 am 02:15 Clear 68 20 64 18 88 88 SSE 5 7 29.91 1013 10 16 N/A
2:35 am 02:35 Clear 68 20 64 18 88 88 S 5 7 29.90 1013 10 16 N/A
2:55 am 02:55 Partly Cloudy 66 19 64 18 94 94 SSW 5 7 29.90 1013 10 16 N/A
3:15 am 03:15 Partly Cloudy 64 18 64 18 100 100 SSW 5 7 29.90 1013 10 16 N/A
3:35 am 03:35 Mostly Cloudy 66 19 64 18 94 94 SSW 5 7 29.90 1013 10 16 N/A
3:55 am 03:55 Partly Cloudy 66 19 64 18 94 94 S 6 9 29.88 1012 10 16 N/A
4:15 am 04:15 Partly Cloudy 66 19 64 18 94 94 N N/A 29.88 1012 10 16 N/A
4:35 am 04:35 Mostly Cloudy 66 19 64 18 94 94 N N/A 29.88 1012 10 16 N/A
4:55 am 04:55 Partly Cloudy 66 19 64 18 94 94 N N/A 29.87 1012 10 16 N/A
5:15 am 05:15 Mostly Cloudy 66 19 64 18 94 94 N N/A 29.87 1012 10 16 N/A
5:35 am 05:35 Cloudy 66 19 64 18 94 94 N N/A 29.87 1012 10 16 N/A
5:55 am 05:55 Cloudy 66 19 64 18 94 94 N N/A 29.87 1012 10 16 N/A
6:15 am 06:15 Cloudy 66 19 64 18 94 94 N N/A 29.87 1012 10 16 N/A
6:35 am 06:35 Cloudy 66 19 64 18 94 94 N N/A 29.87 1012 10 16 N/A
6:55 am 06:55 Cloudy 66 19 64 18 94 94 S 3 6 29.87 1012 10 16 N/A
7:15 am 07:15 Cloudy 66 19 64 18 94 94 S 3 6 29.87 1012 10 16 N/A
7:35 am 07:35 Cloudy 66 19 64 18 94 94 N N/A 29.87 1012 10 16 N/A
7:55 am 07:55 Cloudy 68 20 64 18 88 88 SE 3 6 29.87 1012 10 16 N/A
8:15 am 08:15 Cloudy 68 20 64 18 88 88 S 3 6 29.87 1012 10 16 N/A
8:35 am 08:35 Cloudy 68 20 64 18 88 88 N N/A 29.88 1012 10 16 N/A
8:55 am 08:55 Cloudy 68 20 64 18 88 88 N N/A 29.88 1012 10 16 N/A
9:15 am 09:15 Cloudy 68 20 64 18 88 88 N N/A 29.88 1012 10 16 N/A
9:35 am 09:35 Cloudy 68 20 64 18 88 88 N N/A 29.88 1012 10 16 N/A
9:55 am 09:55 Cloudy 68 20 64 18 88 88 N N/A 29.87 1012 10 16 N/A
10:15 am 10:15 Cloudy 68 20 64 18 88 88 SSE 5 7 29.88 1012 10 16 N/A
10:35 am 10:35 Cloudy 68 20 66 19 94 94 SSW 3 6 29.88 1012 10 16 N/A
10:55 am 10:55 Cloudy with Light Rain 68 20 68 20 100 100 SW 5 7 29.88 1012 10 16 N/A
11:15 am 11:15 Cloudy with Light Rain 68 20 68 20 100 100 WSW 3 6 29.89 1012 10 16 N/A
11:35 am 11:35 Cloudy with Rain 68 20 68 20 100 100 SSW 3 6 29.89 1012 5 8 0.02 0.51
11:55 am 11:55 Cloudy with Light Rain 68 20 68 20 100 100 N N/A 29.88 1012 7 11 0.04 1.02
12:15 pm 12:15 Cloudy with Rain 68 20 68 20 100 100 N N/A 29.88 1012 10 16 0.01 0.25
12:35 pm 12:35 Cloudy with Light Rain 70 21 70 21 100 100 SSW 3 6 29.88 1012 10 16 0.02 0.51
12:55 pm 12:55 Cloudy with Light Rain 70 21 70 21 100 100 SSW 6 9 29.88 1012 7 11 0.03 0.76
1:15 pm 13:15 Cloudy with Light Rain 70 21 70 21 100 100 WSW 7 11 29.87 1012 10 16 0.01 0.25
1:35 pm 13:35 Cloudy with Light Rain 70 21 70 21 100 100 SW 5 7 29.87 1012 10 16 0.01 0.25
1:55 pm 13:55 Cloudy with Light Rain 70 21 70 21 100 100 SW 6 9 29.86 1011 10 16 0.01 0.25
2:15 pm 14:15 Cloudy with Light Rain 72 22 70 21 94 94 SSW 5 7 29.85 1011 10 16 N/A
2:35 pm 14:35 Cloudy 72 22 72 22 100 100 SW 5 7 29.84 1010 10 16 N/A
2:55 pm 14:55 Cloudy 72 22 70 21 94 94 WSW 3 6 29.84 1010 10 16 N/A
3:15 pm 15:15 Cloudy with Rain 72 22 72 22 100 100 SW 3 6 29.84 1010 10 16 N/A
3:35 pm 15:35 Cloudy with Light Rain 72 22 72 22 100 100 SW 3 6 29.84 1010 10 16 N/A
3:55 pm 15:55 Cloudy with Light Rain 72 22 72 22 100 100 SSW 3 6 29.84 1010 10 16 0.01 0.25
4:15 pm 16:15 Cloudy with Light Rain 73 23 72 22 94 94 N N/A 29.84 1010 10 16 0.01 0.25
4:35 pm 16:35 Cloudy with Light Rain 72 22 72 22 100 100 N N/A 29.84 1010 10 16 0.01 0.25
4:55 pm 16:55 Cloudy with Light Rain 72 22 72 22 100 100 WSW 3 6 29.84 1010 10 16 0.01 0.25
5:15 pm 17:15 Cloudy with Light Rain 72 22 72 22 100 100 N N/A 29.84 1010 10 16 0.01 0.25
5:35 pm 17:35 Cloudy 72 22 72 22 100 100 N N/A 29.84 1010 10 16 0.01 0.25
5:55 pm 17:55 Cloudy 72 22 72 22 100 100 N N/A 29.84 1010 10 16 0.01 0.25
6:15 pm 18:15 Cloudy with Light Rain 72 22 72 22 100 100 N N/A 29.84 1010 10 16 N/A
6:35 pm 18:35 Cloudy 72 22 72 22 100 100 N N/A 29.84 1010 10 16 N/A
6:55 pm 18:55 Cloudy 72 22 72 22 100 100 N N/A 29.84 1010 10 16 N/A
7:15 pm 19:15 Cloudy 72 22 72 22 100 100 W 3 6 29.84 1010 10 16 N/A
7:35 pm 19:35 Cloudy 72 22 72 22 100 100 N N/A 29.84 1010 10 16 N/A
7:55 pm 19:55 Cloudy 72 22 72 22 100 100 N N/A 29.84 1010 10 16 N/A
8:15 pm 20:15 Cloudy 72 22 72 22 100 100 W 5 7 29.83 1010 10 16 N/A
8:35 pm 20:35 Cloudy 72 22 72 22 100 100 WSW 3 6 29.84 1010 10 16 N/A
8:55 pm 20:55 Cloudy 72 22 72 22 100 100 W 3 6 29.84 1010 10 16 N/A
9:15 pm 21:15 Cloudy 72 22 72 22 100 100 WSW 5 7 29.85 1011 10 16 N/A
9:35 pm 21:35 Cloudy 72 22 72 22 100 100 WSW 3 6 29.85 1011 10 16 N/A
9:55 pm 21:55 Cloudy 72 22 72 22 100 100 N N/A 29.84 1010 10 16 N/A
10:15 pm 22:15 Cloudy 72 22 72 22 100 100 N N/A 29.84 1010 10 16 N/A
10:35 pm 22:35 Cloudy 72 22 72 22 100 100 N N/A 29.84 1010 10 16 N/A
10:55 pm 22:55 Cloudy 72 22 72 22 100 100 N N/A 29.84 1010 10 16 N/A
11:15 pm 23:15 Cloudy 70 21 70 21 100 100 N N/A 29.84 1010 7 11 N/A
11:35 pm 23:35 Cloudy 70 21 70 21 100 100 N N/A 29.85 1011 10 16 N/A
11:55 pm 23:55 Cloudy 70 21 70 21 100 100 N N/A 29.85 1011 10 16 N/A

Powered by AerisWeather